This is the latest recevied weather packets stored in our database for station/object WA7CUG. If no packets are shown the sender has not sent any weather packets the latest 10 day(s).
| Time | Temp. | Humidity | Pressure | Rain* | Wind** | Luminosity | Snow |
|---|---|---|---|---|---|---|---|
| 1777849101 | 29.44° C | 25% | 1010.5 hPa | 0 mm | - | 534 W/m² | - |
| 1777848796 | 28.89° C | 23% | 1010.6 hPa | 0 mm | - | 544 W/m² | - |
| 1777848493 | 29.44° C | 24% | 1010.7 hPa | 0 mm | - | 553 W/m² | - |
| 1777848190 | 29.44° C | 24% | 1010.8 hPa | 0 mm | - | 562 W/m² | - |
| 1777847888 | 29.44° C | 23% | 1011.2 hPa | 0 mm | - | 572 W/m² | - |
| 1777847585 | 29.44° C | 22% | 1011 hPa | 0 mm | - | 582 W/m² | - |
| 1777847281 | 30° C | 22% | 1010.9 hPa | 0 mm | - | 588 W/m² | - |
| 1777846980 | 30.56° C | 22% | 1011.3 hPa | 0 mm | - | 595 W/m² | - |
| 1777846677 | 29.44° C | 22% | 1011.4 hPa | 0 mm | - | 603 W/m² | - |
| 1777846375 | 28.89° C | 23% | 1011.5 hPa | 0 mm | - | 611 W/m² | - |
| 1777846071 | 28.89° C | 24% | 1011.3 hPa | 0 mm | - | 617 W/m² | - |
| 1777845768 | 28.89° C | 22% | 1011.7 hPa | 0 mm | - | 625 W/m² | - |
| 1777845465 | 28.89° C | 22% | 1011.8 hPa | 0 mm | - | 631 W/m² | - |
| 1777845162 | 28.89° C | 24% | 1011.8 hPa | 0 mm | - | 640 W/m² | - |
| 1777844860 | 28.33° C | 24% | 1012 hPa | 0 mm | - | 645 W/m² | - |
| 1777844557 | 29.44° C | 23% | 1012 hPa | 0 mm | - | 652 W/m² | - |
| 1777844255 | 29.44° C | 24% | 1012.1 hPa | 0 mm | - | 655 W/m² | - |
| 1777843952 | 28.89° C | 21% | 1012.1 hPa | 0 mm | - | 661 W/m² | - |
| 1777843649 | 28.89° C | 21% | 1012.1 hPa | 0 mm | - | 664 W/m² | - |
| 1777843346 | 28.89° C | 22% | 1012.3 hPa | 0 mm | - | 668 W/m² | - |
| 1777843044 | 28.89° C | 21% | 1012.2 hPa | 0 mm | - | 673 W/m² | - |
| 1777842740 | 28.89° C | 24% | 1012.5 hPa | 0 mm | - | 676 W/m² | - |
| 1777842435 | 28.89° C | 22% | 1012.4 hPa | 0 mm | - | 678 W/m² | - |
| 1777842133 | 28.89° C | 24% | 1012.6 hPa | 0 mm | - | 679 W/m² | - |
| 1777841828 | 28.33° C | 25% | 1012.7 hPa | 0 mm | - | 683 W/m² | - |
* Rain latest hour (hover to see other rain measurements)
** Current wind speed in m/s (hover to see current wind gust speed)